{"data":{"norad_id":49438,"epoch":"2026-09-20T00:28:51.596832Z","epoch_age_seconds":82771,"freshness":"FRESH","line1":"1 49438U 21104AG  26263.02004163 -.00063314  00000+0 -18604-2 0  9990","line2":"2 49438  53.1614  51.6717 0001124  64.2065 295.9054 15.34704185268310","mean_motion":15.34704185,"eccentricity":0.0001124,"inclination_deg":53.1614,"raan_deg":51.6717,"arg_perigee_deg":64.2065,"mean_anomaly_deg":295.9054,"bstar":-0.0018604,"rev_number":26831,"period_min":93.829157050223,"perigee_km":461.03047877834,"apogee_km":462.5680964558,"semimajor_km":6839.9362876171,"source":"CELESTRAK","updated_at":"2026-09-20T09:00:39.260730Z"}}